Location: Penton
(34.8659°N, 90.2798°W)
Time: 02:38:43
(UTC+00:00)

Hubble Space Telescope - Visible Passes

Search period start: 08 October 2024 00:00
Search period end: 18 October 2024 00:00
Orbit: 504 x 508 km, 28.5° (Epoch: 07 October)

Date Brightness Start Highest point End Pass type
(mag) Time Alt. Az. Time Alt. Az. Time Alt. Az.
15 Oct 3.0 01:13:09 10° SSW 01:14:10 13° S 01:14:10 13° S visible
16 Oct 2.6 00:51:22 10° SSW 00:53:57 17° SSE 00:53:57 17° SSE visible
17 Oct 2.5 00:29:35 10° SSW 00:32:21 18° SSE 00:33:39 16° SE visible
